Weather Roundup
Issued by NWS

Home | Current Version | Previous Version | Graphics & Text | Print | Product List | Glossary Off
Versions: 1 2 3 4 5 6 7 8 9 10 11 12 13 14 15 16 17 18 19 20 21 22 23 24 25 26 27 28 29 30 31 32 33 34 35 36 37 38 39 40 41 42 43 44 45 46 47 48 49 50

000
NZUS93 KARX 041859
HRRWXR

CURRENT HOURLY OBSERVATIONS ACROSS
MUCH OF THE UPPER MISSISSIPPI VALLEY
NATIONAL WEATHER SERVICE LA CROSSE WI
200 PM CDT FRI SEP 04 2015


...SOUTHEAST MINNESOTA...


CITY           SKY/WX    TMP DP  RH WIND       PRES   REMARKS
ROCHESTER      SUNNY     86  72  62 SE12      29.97F HX  92
ROCHESTER/MAYO FAIR      85  71  61 SE10      29.97R HX  90
WINONA         SUNNY     84  70  61 E10       29.97S
AUSTIN         SUNNY     86  73  66 S9        29.95S HX  93
ALBERT LEA     SUNNY     88  72  58 SE10      29.94R HX  94
DODGE CENTER   SUNNY     84  72  65 SE9       29.96S
PRESTON        MOSUNNY   84  70  62 SE10      29.99S
OWATONNA       SUNNY     88  73  62 SE12G17   29.94R HX  96
FARIBAULT      SUNNY     86  73  66 SE12      29.93S HX  93
$$

...ELSEWHERE IN MINNESOTA...


CITY           SKY/WX    TMP DP  RH WIND       PRES   REMARKS
MINNEAPOLIS    MOSUNNY   86  72  62 SE9       29.92S HX  92
INTNL FALLS    MOSUNNY   82  69  64 SE13G22   29.90F
DULUTH         MOSUNNY   76  65  68 E14       29.99F
RED WING       SUNNY     86  70  58 SE13      29.93F HX  90
REDWOOD FALLS  MOSUNNY   88  70  55 S12       29.87F HX  93
MANKATO        SUNNY     88  72  58 S10G17    29.91S HX  94
WORTHINGTON    CLOUDY    79  66  65 S8        29.91S
FAIRMONT       MOSUNNY   86  70  58 S16       29.91F HX  90
$$

...SOUTHWEST WISCONSIN...


CITY           SKY/WX    TMP DP  RH WIND       PRES   REMARKS
LA CROSSE      PTSUNNY   85  71  63 SE7       29.97F HX  90
PRAIRIE DU CHI MOSUNNY   86  68  54 E6        29.97F
BOSCOBEL       MOSUNNY   90  72  55 MISG      29.98F HX  97
LONE ROCK      NOT AVBL
PLATTEVILLE    MOSUNNY   84  73  68 CALM      30.01S HX  91
FORT MC COY    SUNNY     84  68  57 SE8       30.01S
VIROQUA        FAIR      83  71  66 SE5       30.02S
WIS DELLS      SUNNY     80  66  63 NE3       30.03F
$$

...ELSEWHERE IN WISCONSIN...


CITY           SKY/WX    TMP DP  RH WIND       PRES   REMARKS
MILWAUKEE      MOSUNNY   76  66  71 NE10      30.03S
MADISON        MOSUNNY   81  69  67 NE6       30.01F
GREEN BAY      CLOUDY    78  67  68 NE5       30.05R
EAU CLAIRE     SUNNY     84  70  62 SE10      29.98S
BLACK RVR FLS  FAIR      84  67  57 E5        30.00S
MEDFORD        SUNNY     76  66  72 SE7       30.06S
WAUSAU         MOSUNNY   80  66  62 MISG      30.04S
WIS RAPIDS     SUNNY     77  64  64 VRB6      30.06S
MARSHFIELD     SUNNY     77  65  66 E9        30.05F
RICE LAKE      SUNNY     80  69  68 SE10      30.01S
$$

...NORTHEAST IOWA...


CITY           SKY/WX    TMP DP  RH WIND       PRES   REMARKS
DECORAH        MOSUNNY   84  73  70 S7G13     29.99R HX  91
MASON CITY     SUNNY     88  74  63 S13       29.96S HX  96
CHARLES CITY   SUNNY     86  75  70 S12       29.97S HX  95
OELWEIN        MOSUNNY   86  72  62 VRB6G14   29.99S HX  92
$$

...ELSEWHERE IN IOWA...


CITY           SKY/WX    TMP DP  RH WIND       PRES   REMARKS
DES MOINES     PTSUNNY   90  70  51 S14       29.94F HX  95
IOWA CITY      SUNNY     89  69  51 SW6       29.98F HX  93
FORT DODGE     SUNNY     86  72  62 S9        29.94S HX  92
$$

...NORTHERN ILLINOIS...


CITY           SKY/WX    TMP DP  RH WIND       PRES   REMARKS
CHICAGO-OHARE  MOSUNNY   84  69  60 E6        30.00F
CHICAGO-MIDWAY MOSUNNY   85  68  56 E7        30.00F
MOLINE         MOSUNNY   91  69  48 CALM      29.98F HX  96
ROCKFORD       MOSUNNY   86  72  62 CALM      30.01F HX  92
PEORIA         MOSUNNY   93  67  42 VRB3      29.99F HX  96
$$

NOTE: "FAIR" INDICATES FEW OR NO CLOUDS BELOW 12,000 FEET WITH NO
SIGNIFICANT WEATHER AND/OR OBSTRUCTIONS TO VISIBILITY. WIND
SPEEDS ARE IN MILES-PER-HOUR.



USA.gov is the U.S. government's official web portal to all federal, state and local government web resources and services.